Hourly Data Report for October 01, 2013

All times are specified in Local Standard Time (LST). Add 1 hour to adjust for Daylight Saving Time where and when it is observed.

ST LEONARD CS
NEW BRUNSWICK

47°09'28.050" N
67°49'55.014" W
245.00 m
810I001
71019
WIY

Download Data

Hourly Data (October 2013)
Hourly Data Report for October 1, 2013
Temp Definition
°C
Dew Point Temp Definition
°C
Rel Hum Definition
%
Wind Dir Definition
10's deg

Wind Spd Definition
km/h
Visibility Definition
km
Stn Press Definition
kPa
Hmdx Definition


Wind Chill Definition


Weather Definition


TIME
00:00 7.7 6.7 93 16 2   98.61     LegendNANA
01:00 6.8 6.3 97   0   98.61     LegendNANA
02:00 5.9 5.4 97 33 2   98.57     LegendNANA
03:00 5.0 4.3 95   0   98.55     LegendNANA
04:00 4.6 4.2 97   0   98.54     LegendNANA
05:00 4.2 3.9 98 35 9   98.53     LegendNANA
06:00 4.3 3.8 97 34 9   98.52     LegendNANA
07:00 4.3 3.9 97 35 4   98.55     LegendNANA
08:00 8.1 6.3 88   0   98.55     LegendNANA
09:00 11.2 8.1 81 33 2   98.52     LegendNANA
10:00 15.7 10.1 69   0   98.48     LegendNANA
11:00 18.3 10.5 60 26 4   98.42     LegendNANA
12:00 20.9 10.3 51 26 6   98.33     LegendNANA
13:00 21.8 7.5 40 27 4   98.23     LegendNANA
14:00 21.8 7.6 40 29 11   98.19     LegendNANA
15:00 22.4 5.6 34 30 7   98.11     LegendNANA
16:00 22.2 7.8 40 29 6   98.04     LegendNANA
17:00 22.1 7.8 40 28 6   98.02     LegendNANA
18:00 19.2 10.3 56   0   98.02     LegendNANA
19:00 14.2 10.2 77   0   98.02     LegendNANA
20:00 12.2 9.2 82 16 2   98.02     LegendNANA
21:00 11.3 8.5 83   0   98.00     LegendNANA
22:00 10.2 8.1 87   0   97.98     LegendNANA
23:00 9.8 7.9 88   0   97.97     LegendNANA

Notes on Data Quality.

Legend

  • E = Estimated
  • M = Missing
  • NA = Not Available
  • ‡ = Partner data that is not subject to review by the National Climate Archives
Date modified: